Tracking 23726 objects as of 24-Sep-2021
HD Live streaming from Space Station
objects crossing your sky now

KL-BETA A

Track KL-BETA A now!
10-day predictions


NORAD ID: 49059
Int'l Code: 2021-070A
Perigee: 903.2 km
Apogee: 918.0 km
Inclination: 89.0 °
Period: 103.1 minutes
Semi major axis: 7281 km
RCS: Unknown
Launch date: August 4, 2021
Source: People's Republic of China (PRC)
Launch site: Taiyaun Space Center, China (TSC)
aabbcc
Your satellite tracking list
Your tracking list is empty




NASA's NSSDC Master Catalog

Two Line Element Set (TLE):
1 49059U 21070A   21267.13951461  .00000064  00000-0  35632-4 0  9998
2 49059  88.9947  47.7152 0010148  91.7313 268.5023 13.97207899  7073
Source of the keplerian elements: AFSPC